Date String (YYYY-MM-DD hh:mm:ss) UTC,Instrument flags,Ambient pressure (hPa),Sample flow (lpm),Bypass flow (lpm),Sample temperature (°C),Ambient temperature (°C),ASC tube jacket temperature (°C),LED temperature (°C),Box temperature (°C),Sample RH (%),Span deviation,Mass concentration (μg/m³),Mass concentration (μg/m³),Mass concentration (μg/m³)
DateTimeUTC,F1_M11,P_M11,Q1_M11,Q2_M11,T1_M11,T2_M11,T3_M11,T4_M11,T5_M11,U1_M11,ZSPAN_M11,X0_M11,X2_M11,X1_M11
2022-09-15 20:00:00,,0825.8,5.00,0.00,30.1,28.0,00.0,38.7,32.0,25.6,0000.0,0007.59,0003.19,0002.55
2022-09-15 20:01:00,,0825.8,5.00,0.00,30.1,26.9,00.0,38.7,31.9,25.0,0000.0,0007.47,0003.15,0002.49
2022-09-15 20:02:00,,0825.9,4.99,0.00,30.0,26.6,00.0,38.6,31.8,25.6,0000.0,0007.42,0003.11,0002.43
2022-09-15 20:03:00,,0825.7,5.00,0.00,29.9,26.8,00.0,38.6,31.6,25.8,0000.0,0007.50,0003.09,0002.38
2022-09-15 20:04:00,,0826.0,5.00,0.00,29.9,27.2,00.0,38.6,31.6,25.4,0000.0,0007.78,0003.08,0002.35
2022-09-15 20:05:00,,0825.8,5.01,0.00,29.9,27.6,00.0,38.5,31.6,25.2,0000.0,0007.42,0003.03,0002.30
2022-09-15 20:06:00,,0825.9,5.01,0.00,29.9,27.9,00.0,38.5,31.7,24.9,0000.0,0007.45,0003.00,0002.26
2022-09-15 20:07:00,,0825.8,4.99,0.00,29.9,28.1,00.0,38.5,31.7,25.5,0000.0,0007.38,0002.91,0002.20
2022-09-15 20:08:00,,0825.9,5.01,0.00,29.9,28.3,00.0,38.5,31.7,25.7,0000.0,0007.25,0002.89,0002.17
2022-09-15 20:09:00,,0826.0,5.01,0.00,29.9,28.5,00.0,38.5,31.8,24.8,0000.0,0007.36,0002.87,0002.15
2022-09-15 20:10:00,,0826.2,5.00,0.00,29.9,28.7,00.0,38.6,31.9,25.0,0000.0,0007.44,0002.81,0002.13
2022-09-15 20:11:00,,0825.9,5.00,0.00,30.0,28.8,00.0,38.6,31.9,25.1,0000.0,0006.73,0002.80,0002.12
2022-09-15 20:12:00,,0825.9,5.00,0.00,30.0,29.0,00.0,38.6,32.0,25.1,0000.0,0006.78,0002.84,0002.13
2022-09-15 20:13:00,,0825.7,5.01,0.00,30.1,29.1,00.0,38.6,32.0,25.2,0000.0,0006.96,0002.85,0002.14
2022-09-15 20:14:00,,0825.7,4.99,0.00,30.1,28.5,00.0,38.7,32.0,24.4,0000.0,0007.49,0002.83,0002.14
2022-09-15 20:15:00,,0825.8,5.01,0.00,30.1,27.2,00.0,38.6,31.9,24.0,0000.0,0006.94,0002.79,0002.12
2022-09-15 20:16:00,,0825.7,5.00,0.00,30.0,26.6,00.0,38.6,31.8,24.2,0000.0,0007.44,0002.74,0002.10
2022-09-15 20:17:00,,0825.7,5.00,0.00,29.9,26.7,00.0,38.6,31.7,24.8,0000.0,0007.54,0002.76,0002.09
2022-09-15 20:18:00,,0825.7,5.00,0.00,29.9,27.0,00.0,38.5,31.5,25.0,0000.0,0007.51,0002.77,0002.11
2022-09-15 20:19:00,,0825.6,5.00,0.00,29.8,27.3,00.0,38.5,31.5,25.3,0000.0,0007.46,0002.71,0002.11
2022-09-15 20:20:00,,0825.6,4.98,0.00,29.8,27.7,00.0,38.5,31.6,25.7,0000.0,0007.47,0002.68,0002.12
2022-09-15 20:21:00,,0825.6,5.01,0.00,29.8,28.0,00.0,38.5,31.6,25.3,0000.0,0006.96,0002.70,0002.14
2022-09-15 20:22:00,,0825.6,4.99,0.00,29.8,28.2,00.0,38.5,31.7,25.0,0000.0,0006.36,0002.75,0002.17
2022-09-15 20:23:00,,0825.6,5.01,0.00,29.9,28.4,00.0,38.5,31.8,25.1,0000.0,0006.53,0002.73,0002.18
2022-09-15 20:24:00,,0825.6,5.00,0.00,29.9,28.6,00.0,38.5,31.8,25.3,0000.0,0006.45,0002.67,0002.18
2022-09-15 20:25:00,,0825.6,5.00,0.00,29.9,28.7,00.0,38.5,31.8,25.3,0000.0,0005.73,0002.66,0002.18
2022-09-15 20:26:00,,0825.6,5.00,0.00,29.9,28.8,00.0,38.6,31.9,24.9,0000.0,0005.34,0002.64,0002.18
2022-09-15 20:27:00,,0825.6,5.00,0.00,30.0,29.0,00.0,38.6,31.9,25.0,0000.0,0004.99,0002.72,0002.20
2022-09-15 20:28:00,,0825.6,5.01,0.00,30.0,29.1,00.0,38.6,32.0,25.0,0000.0,0004.38,0002.74,0002.21
2022-09-15 20:29:00,,0825.6,4.99,0.00,30.1,28.4,00.0,38.6,32.0,24.9,0000.0,0004.55,0002.73,0002.21
2022-09-15 20:30:00,,0825.6,5.00,0.00,30.0,27.0,00.0,38.6,31.8,24.7,0000.0,0004.60,0002.78,0002.23
2022-09-15 20:31:00,,0825.5,5.00,0.00,30.0,26.4,00.0,38.6,31.8,24.7,0000.0,0004.67,0002.85,0002.26
2022-09-15 20:32:00,,0825.5,5.00,0.00,29.9,26.6,00.0,38.5,31.6,25.2,0000.0,0005.90,0002.87,0002.27
2022-09-15 20:33:00,,0825.5,5.00,0.00,29.8,26.9,00.0,38.5,31.5,25.2,0000.0,0006.60,0002.85,0002.27
2022-09-15 20:34:00,,0825.5,5.00,0.00,29.8,27.3,00.0,38.5,31.5,25.0,0000.0,0006.41,0002.83,0002.26
2022-09-15 20:35:00,,0825.5,5.00,0.00,29.8,27.7,00.0,38.5,31.6,25.4,0000.0,0006.45,0002.86,0002.25
2022-09-15 20:36:00,,0825.5,5.00,0.00,29.8,27.9,00.0,38.5,31.6,25.6,0000.0,0006.48,0002.87,0002.24
2022-09-15 20:37:00,,0825.5,4.99,0.00,29.8,28.1,00.0,38.5,31.6,25.4,0000.0,0006.47,0002.87,0002.25
2022-09-15 20:38:00,,0825.4,5.01,0.00,29.8,28.3,00.0,38.5,31.7,24.8,0000.0,0006.42,0002.85,0002.25
2022-09-15 20:39:00,,0825.5,4.99,0.00,29.8,28.5,00.0,38.5,31.7,25.0,0000.0,0006.31,0002.84,0002.27
2022-09-15 20:40:00,,0825.5,5.01,0.00,29.9,28.6,00.0,38.5,31.8,25.2,0000.0,0006.36,0002.85,0002.29
2022-09-15 20:41:00,,0825.4,4.99,0.00,29.9,28.8,00.0,38.5,31.9,25.0,0000.0,0007.36,0002.86,0002.30
2022-09-15 20:42:00,,0825.5,4.99,0.00,30.0,28.9,00.0,38.6,31.9,25.0,0000.0,0007.23,0002.79,0002.29
2022-09-15 20:43:00,,0825.4,5.01,0.00,30.0,29.0,00.0,38.6,32.0,24.3,0000.0,0005.84,0002.79,0002.29
2022-09-15 20:44:00,,0825.4,4.99,0.00,30.0,28.9,00.0,38.6,32.0,24.2,0000.0,0005.47,0002.81,0002.29
2022-09-15 20:45:00,,0825.4,5.00,0.00,30.0,27.6,00.0,38.6,31.9,24.2,0000.0,0005.63,0002.85,0002.31
2022-09-15 20:46:00,,0825.4,5.00,0.00,30.0,26.5,00.0,38.6,31.7,24.6,0000.0,0005.62,0002.89,0002.35
2022-09-15 20:47:00,,0825.4,5.00,0.00,29.9,26.5,00.0,38.5,31.7,24.6,0000.0,0005.60,0002.91,0002.36
2022-09-15 20:48:00,,0825.5,5.00,0.00,29.9,26.7,00.0,38.5,31.5,24.6,0000.0,0006.18,0002.94,0002.36
2022-09-15 20:49:00,,0825.4,5.01,0.00,29.8,27.1,00.0,38.5,31.5,24.9,0000.0,0006.18,0002.93,0002.37
2022-09-15 20:50:00,,0825.4,4.99,0.00,29.8,27.5,00.0,38.5,31.5,24.8,0000.0,0006.21,0002.91,0002.35
2022-09-15 20:51:00,,0825.4,5.00,0.00,29.8,27.8,00.0,38.5,31.6,24.9,0000.0,0006.24,0002.93,0002.35
2022-09-15 20:52:00,,0825.4,5.01,0.00,29.8,28.1,00.0,38.5,31.6,25.3,0000.0,0005.44,0002.91,0002.33
2022-09-15 20:53:00,,0825.4,5.00,0.00,29.8,28.3,00.0,38.5,31.7,25.3,0000.0,0005.49,0002.93,0002.33
2022-09-15 20:54:00,,0825.4,5.01,0.00,29.8,28.4,00.0,38.5,31.7,25.5,0000.0,0005.66,0002.95,0002.33
2022-09-15 20:55:00,,0825.4,5.00,0.00,29.9,28.6,00.0,38.5,31.8,25.4,0000.0,0006.39,0002.97,0002.33
2022-09-15 20:56:00,,0825.4,5.01,0.00,29.9,28.7,00.0,38.5,31.8,24.7,0000.0,0006.83,0002.93,0002.32
2022-09-15 20:57:00,,0825.4,5.00,0.00,29.9,28.9,00.0,38.5,31.9,24.6,0000.0,0007.49,0002.92,0002.32
2022-09-15 20:58:00,,0825.4,4.99,0.00,30.0,29.0,00.0,38.6,32.0,24.5,0000.0,0008.00,0002.91,0002.32
2022-09-15 20:59:00,,0825.5,4.99,0.00,30.0,29.1,00.0,38.6,32.0,24.6,0000.0,0007.73,0002.91,0002.34
